Location: Bluff Heights
(33.7692°N, 118.1592°W)
Time: 04:48:59
(UTC+00:00)

deb Explorer IX - Visible Passes

Search period start: 01 August 2021 00:00
Search period end: 11 August 2021 00:00
Orbit: 543 x 1094 km, 38.8° (Epoch: 31 July)

Date Brightness Start Highest point End Pass type
(mag) Time Alt. Az. Time Alt. Az. Time Alt. Az.
01 Aug ? 04:05:38 10° W 04:09:59 18° SW 04:14:28 10° S visible
02 Aug ? 03:41:31 10° W 03:45:44 17° SW 03:50:09 10° S visible
03 Aug ? 03:17:25 10° WSW 03:21:30 17° SW 03:25:48 10° S visible
